Time,TemperatureF,DewpointF,PressureIn,WindDirection,WindDirectionDegrees,WindSpeedMPH,WindSpeedGustMPH,Humidity,HourlyPrecipIn,Conditions,Clouds,dailyrainin,SoftwareType,DateUTC
2013-03-10 00:01:00,58.8,56.2,30.04,North,0,0.0,0.0,91,0.00,,,0.00,WUHU21623XXSP,2013-03-10 06:01:00,
2013-03-10 00:06:00,58.8,56.2,30.04,North,0,0.0,0.0,91,0.00,,,0.00,WUHU21623XXSP,2013-03-10 06:06:00,
2013-03-10 00:11:00,58.8,56.2,30.04,North,0,0.0,0.0,91,0.00,,,0.00,WUHU21623XXSP,2013-03-10 06:11:00,
2013-03-10 00:16:00,59.0,56.4,30.04,North,0,0.0,0.0,91,0.00,,,0.00,WUHU21623XXSP,2013-03-10 06:16:00,
2013-03-10 00:21:00,59.2,56.6,30.04,North,0,0.0,0.0,91,0.00,,,0.00,WUHU21623XXSP,2013-03-10 06:21:00,
2013-03-10 00:26:00,59.2,56.6,30.04,North,0,0.0,0.0,91,0.00,,,0.00,WUHU21623XXSP,2013-03-10 06:26:00,
2013-03-10 00:31:00,59.2,56.6,30.03,North,0,0.0,0.0,91,0.00,,,0.00,WUHU21623XXSP,2013-03-10 06:31:00,
2013-03-10 00:36:00,59.4,56.8,30.04,North,0,0.0,0.0,91,0.00,,,0.00,WUHU21623XXSP,2013-03-10 06:36:00,
2013-03-10 00:41:00,59.4,56.8,30.04,North,0,0.0,0.0,91,0.00,,,0.00,WUHU21623XXSP,2013-03-10 06:41:00,
2013-03-10 00:46:00,59.4,56.8,30.04,North,0,0.0,0.0,91,0.00,,,0.00,WUHU21623XXSP,2013-03-10 06:46:00,
2013-03-10 00:51:00,59.4,56.8,30.04,North,0,0.0,0.0,91,0.00,,,0.00,WUHU21623XXSP,2013-03-10 06:51:00,
2013-03-10 00:56:00,59.5,56.9,30.04,North,0,0.0,0.0,91,0.00,,,0.00,WUHU21623XXSP,2013-03-10 06:56:00,
2013-03-10 01:01:00,59.5,56.9,30.03,North,0,0.0,0.0,91,0.00,,,0.00,WUHU21623XXSP,2013-03-10 07:01:00,
2013-03-10 01:06:00,59.5,56.7,30.03,North,0,0.0,0.0,91,0.00,,,0.00,WUHU21623XXSP,2013-03-10 07:06:00,
2013-03-10 01:11:00,59.5,56.9,30.02,North,0,0.0,0.0,91,0.00,,,0.00,WUHU21623XXSP,2013-03-10 07:11:00,
2013-03-10 01:16:00,59.7,56.9,30.02,North,0,0.0,0.0,91,0.00,,,0.00,WUHU21623XXSP,2013-03-10 07:16:00,
2013-03-10 01:21:00,59.7,56.8,30.02,North,0,0.0,0.0,90,0.00,,,0.00,WUHU21623XXSP,2013-03-10 07:21:00,
2013-03-10 01:26:00,59.7,56.8,30.02,North,0,0.0,0.0,90,0.00,,,0.00,WUHU21623XXSP,2013-03-10 07:26:00,
2013-03-10 01:31:00,59.7,56.8,30.02,North,0,0.0,0.0,90,0.00,,,0.00,WUHU21623XXSP,2013-03-10 07:31:00,
2013-03-10 01:36:00,59.9,57.0,30.02,North,0,0.0,0.0,90,0.00,,,0.00,WUHU21623XXSP,2013-03-10 07:36:00,
2013-03-10 01:41:00,59.7,56.8,30.02,North,0,0.0,0.0,90,0.00,,,0.00,WUHU21623XXSP,2013-03-10 07:41:00,
2013-03-10 01:46:00,59.7,56.8,30.01,North,0,0.0,0.0,90,0.00,,,0.00,WUHU21623XXSP,2013-03-10 07:46:00,
2013-03-10 01:51:00,59.7,56.8,30.01,North,0,0.0,0.0,90,0.00,,,0.00,WUHU21623XXSP,2013-03-10 07:51:00,
2013-03-10 01:56:00,59.7,56.8,30.01,North,0,0.0,0.0,90,0.00,,,0.00,WUHU21623XXSP,2013-03-10 07:56:00,
2013-03-10 03:01:00,59.7,56.8,30.00,North,0,0.0,0.0,90,0.00,,,0.00,WUHU21623XXSP,2013-03-10 08:01:00,
2013-03-10 03:06:00,59.7,56.8,30.00,North,0,0.0,0.0,90,0.00,,,0.00,WUHU21623XXSP,2013-03-10 08:06:00,
2013-03-10 03:11:00,59.7,56.8,30.00,North,0,0.0,0.0,90,0.00,,,0.00,WUHU21623XXSP,2013-03-10 08:11:00,
2013-03-10 03:16:00,59.9,57.0,30.00,North,0,0.0,0.0,90,0.00,,,0.00,WUHU21623XXSP,2013-03-10 08:16:00,
2013-03-10 03:21:00,59.9,57.0,30.00,North,0,0.0,0.0,90,0.00,,,0.00,WUHU21623XXSP,2013-03-10 08:21:00,
2013-03-10 03:26:00,60.1,57.2,30.00,North,0,0.0,0.0,90,0.00,,,0.00,WUHU21623XXSP,2013-03-10 08:26:00,
2013-03-10 03:31:00,60.1,57.2,30.00,North,0,0.0,0.0,90,0.00,,,0.00,WUHU21623XXSP,2013-03-10 08:31:00,
2013-03-10 03:36:00,60.1,57.2,30.00,North,0,0.0,0.0,90,0.00,,,0.00,WUHU21623XXSP,2013-03-10 08:36:00,
2013-03-10 03:41:00,60.1,57.2,30.00,North,0,0.0,0.0,90,0.00,,,0.00,WUHU21623XXSP,2013-03-10 08:41:00,
2013-03-10 03:46:00,60.1,57.2,30.00,North,0,0.0,0.0,90,0.00,,,0.00,WUHU21623XXSP,2013-03-10 08:46:00,
2013-03-10 03:51:00,60.1,57.2,30.01,North,0,0.0,0.0,90,0.00,,,0.00,WUHU21623XXSP,2013-03-10 08:51:00,
2013-03-10 03:56:00,60.1,57.2,30.00,North,0,0.0,0.0,90,0.00,,,0.00,WUHU21623XXSP,2013-03-10 08:56:00,
2013-03-10 04:01:00,60.1,57.2,30.00,North,0,0.0,0.0,90,0.00,,,0.00,WUHU21623XXSP,2013-03-10 09:01:00,
2013-03-10 04:06:00,60.1,57.2,30.00,North,0,0.0,0.0,90,0.00,,,0.00,WUHU21623XXSP,2013-03-10 09:06:00,
2013-03-10 04:11:00,60.1,57.2,30.00,North,0,0.0,0.0,90,0.00,,,0.00,WUHU21623XXSP,2013-03-10 09:11:00,
2013-03-10 04:16:00,60.1,57.2,30.00,North,0,0.0,0.0,90,0.00,,,0.00,WUHU21623XXSP,2013-03-10 09:16:00,
2013-03-10 04:21:00,60.1,57.2,30.00,North,0,0.0,0.0,90,0.00,,,0.00,WUHU21623XXSP,2013-03-10 09:21:00,
2013-03-10 04:26:00,60.1,57.2,30.01,North,0,0.0,0.0,90,0.00,,,0.00,WUHU21623XXSP,2013-03-10 09:26:00,
2013-03-10 04:31:00,60.1,57.2,30.01,North,0,0.0,0.0,90,0.00,,,0.00,WUHU21623XXSP,2013-03-10 09:31:00,
2013-03-10 04:36:00,59.9,57.0,30.01,North,0,0.0,0.0,90,0.00,,,0.00,WUHU21623XXSP,2013-03-10 09:36:00,
2013-03-10 04:41:00,59.7,56.8,30.00,North,0,0.0,0.0,90,0.00,,,0.00,WUHU21623XXSP,2013-03-10 09:41:00,
2013-03-10 04:46:00,59.5,56.7,30.00,North,0,0.0,0.0,90,0.00,,,0.00,WUHU21623XXSP,2013-03-10 09:46:00,
2013-03-10 04:51:00,59.5,56.7,30.00,North,0,0.0,0.0,90,0.00,,,0.00,WUHU21623XXSP,2013-03-10 09:51:00,
2013-03-10 04:56:00,59.5,56.7,30.00,North,0,0.0,0.0,90,0.00,,,0.00,WUHU21623XXSP,2013-03-10 09:56:00,
2013-03-10 05:01:00,59.5,56.7,29.99,North,0,0.0,0.0,90,0.00,,,0.00,WUHU21623XXSP,2013-03-10 10:01:00,
2013-03-10 05:06:00,59.5,56.7,29.99,North,0,0.0,0.0,90,0.00,,,0.00,WUHU21623XXSP,2013-03-10 10:06:00,
2013-03-10 05:11:00,59.7,56.8,29.99,North,0,0.0,0.0,90,0.00,,,0.00,WUHU21623XXSP,2013-03-10 10:11:00,
2013-03-10 05:16:00,59.5,56.7,30.00,North,0,0.0,0.0,90,0.00,,,0.00,WUHU21623XXSP,2013-03-10 10:16:00,
2013-03-10 05:21:00,59.5,56.7,30.01,North,0,0.0,0.0,90,0.00,,,0.00,WUHU21623XXSP,2013-03-10 10:21:00,
2013-03-10 05:26:00,59.5,56.7,30.01,North,0,0.0,0.0,90,0.00,,,0.00,WUHU21623XXSP,2013-03-10 10:26:00,
2013-03-10 05:31:00,59.5,56.7,30.01,North,0,0.0,0.0,90,0.00,,,0.00,WUHU21623XXSP,2013-03-10 10:31:00,
2013-03-10 05:36:00,59.4,56.5,30.00,North,0,0.0,0.0,90,0.00,,,0.00,WUHU21623XXSP,2013-03-10 10:36:00,
2013-03-10 05:41:00,59.4,56.5,30.00,North,0,0.0,0.0,90,0.00,,,0.00,WUHU21623XXSP,2013-03-10 10:41:00,
2013-03-10 05:46:00,59.2,56.5,30.00,North,0,0.0,0.0,90,0.00,,,0.00,WUHU21623XXSP,2013-03-10 10:46:00,
2013-03-10 05:51:00,59.2,56.3,30.00,North,0,0.0,0.0,90,0.00,,,0.00,WUHU21623XXSP,2013-03-10 10:51:00,
2013-03-10 05:56:00,59.0,56.1,30.00,North,0,0.0,0.0,90,0.00,,,0.00,WUHU21623XXSP,2013-03-10 10:56:00,
2013-03-10 06:01:00,58.8,55.9,30.00,North,0,0.0,0.0,90,0.00,,,0.00,WUHU21623XXSP,2013-03-10 11:01:00,
2013-03-10 06:06:00,58.6,55.8,30.00,North,0,0.0,0.0,90,0.00,,,0.00,WUHU21623XXSP,2013-03-10 11:06:00,
2013-03-10 06:11:00,58.6,55.8,30.01,North,0,0.0,0.0,90,0.00,,,0.00,WUHU21623XXSP,2013-03-10 11:11:00,
2013-03-10 06:16:00,58.3,55.4,30.00,North,0,0.0,0.0,90,0.00,,,0.00,WUHU21623XXSP,2013-03-10 11:16:00,
2013-03-10 06:21:00,58.1,55.2,30.00,North,0,0.0,0.0,90,0.00,,,0.00,WUHU21623XXSP,2013-03-10 11:21:00,
2013-03-10 06:26:00,57.9,55.0,30.00,North,0,0.0,0.0,90,0.00,,,0.00,WUHU21623XXSP,2013-03-10 11:26:00,
2013-03-10 06:31:00,57.7,54.9,30.00,North,0,0.0,0.0,90,0.00,,,0.00,WUHU21623XXSP,2013-03-10 11:31:00,
2013-03-10 06:36:00,57.6,54.7,30.00,North,0,0.0,0.0,90,0.00,,,0.00,WUHU21623XXSP,2013-03-10 11:36:00,
2013-03-10 06:41:00,57.4,54.5,30.00,North,0,0.0,0.0,90,0.00,,,0.00,WUHU21623XXSP,2013-03-10 11:41:00,
2013-03-10 06:46:00,57.4,54.8,30.00,North,0,0.0,0.0,91,0.00,,,0.00,WUHU21623XXSP,2013-03-10 11:46:00,
2013-03-10 06:51:00,57.4,54.8,30.00,North,0,0.0,0.0,91,0.00,,,0.00,WUHU21623XXSP,2013-03-10 11:51:00,
2013-03-10 06:56:00,57.2,54.6,30.00,North,0,0.0,0.0,91,0.00,,,0.00,WUHU21623XXSP,2013-03-10 11:56:00,
2013-03-10 07:01:00,57.2,54.9,30.00,North,0,0.0,0.0,92,0.00,,,0.00,WUHU21623XXSP,2013-03-10 12:01:00,
2013-03-10 07:06:00,57.2,54.9,30.01,North,0,0.0,0.0,92,0.00,,,0.00,WUHU21623XXSP,2013-03-10 12:06:00,
2013-03-10 07:11:00,57.0,54.7,30.01,North,0,0.0,0.0,92,0.00,,,0.00,WUHU21623XXSP,2013-03-10 12:11:00,
2013-03-10 07:16:00,57.0,54.7,30.01,North,0,0.0,0.0,92,0.00,,,0.00,WUHU21623XXSP,2013-03-10 12:16:00,
2013-03-10 07:21:00,57.0,54.7,30.01,North,0,0.0,0.0,92,0.00,,,0.00,WUHU21623XXSP,2013-03-10 12:21:00,
2013-03-10 07:26:00,57.0,54.7,30.01,North,0,0.0,0.0,92,0.00,,,0.00,WUHU21623XXSP,2013-03-10 12:26:00,
2013-03-10 07:31:00,57.0,54.7,30.01,North,0,0.0,0.0,92,0.00,,,0.00,WUHU21623XXSP,2013-03-10 12:31:00,
2013-03-10 07:36:00,57.0,54.7,30.01,North,0,0.0,0.0,92,0.00,,,0.00,WUHU21623XXSP,2013-03-10 12:36:00,
2013-03-10 07:41:00,57.0,54.7,30.01,North,0,0.0,0.0,92,0.00,,,0.00,WUHU21623XXSP,2013-03-10 12:41:00,
2013-03-10 07:46:00,57.2,54.9,30.01,North,0,0.0,0.0,92,0.00,,,0.00,WUHU21623XXSP,2013-03-10 12:46:00,
2013-03-10 07:51:00,57.4,55.4,30.01,North,0,0.0,0.0,93,0.00,,,0.00,WUHU21623XXSP,2013-03-10 12:51:00,
2013-03-10 07:56:00,57.7,55.7,30.01,North,0,0.0,0.0,93,0.00,,,0.00,WUHU21623XXSP,2013-03-10 12:56:00,
2013-03-10 08:01:00,57.9,55.9,30.02,North,0,0.0,0.0,93,0.00,,,0.00,WUHU21623XXSP,2013-03-10 13:01:00,
2013-03-10 08:06:00,58.3,56.3,30.02,North,0,0.0,0.0,93,0.00,,,0.00,WUHU21623XXSP,2013-03-10 13:06:00,
2013-03-10 08:11:00,58.5,56.4,30.02,North,0,0.0,0.0,93,0.00,,,0.00,WUHU21623XXSP,2013-03-10 13:11:00,
2013-03-10 08:16:00,58.8,56.8,30.02,North,0,0.0,0.0,93,0.00,,,0.00,WUHU21623XXSP,2013-03-10 13:16:00,
2013-03-10 08:21:00,59.5,57.5,30.03,North,0,0.0,0.0,93,0.00,,,0.00,WUHU21623XXSP,2013-03-10 13:21:00,
2013-03-10 08:26:00,59.7,57.7,30.03,North,0,0.0,0.0,93,0.00,,,0.00,WUHU21623XXSP,2013-03-10 13:26:00,
2013-03-10 08:31:00,60.4,58.4,30.03,North,0,0.0,0.0,93,0.00,,,0.00,WUHU21623XXSP,2013-03-10 13:31:00,
2013-03-10 08:36:00,60.6,58.3,30.03,North,0,0.0,0.0,92,0.00,,,0.00,WUHU21623XXSP,2013-03-10 13:36:00,
2013-03-10 08:41:00,61.0,58.7,30.03,North,0,0.0,0.0,92,0.00,,,0.00,WUHU21623XXSP,2013-03-10 13:41:00,
2013-03-10 08:46:00,61.3,58.7,30.03,North,0,0.0,0.0,91,0.00,,,0.00,WUHU21623XXSP,2013-03-10 13:46:00,
2013-03-10 08:51:00,61.7,59.1,30.04,North,0,0.0,0.0,91,0.00,,,0.00,WUHU21623XXSP,2013-03-10 13:51:00,
2013-03-10 08:56:00,62.1,59.2,30.04,North,0,0.0,0.0,90,0.00,,,0.00,WUHU21623XXSP,2013-03-10 13:56:00,
2013-03-10 09:01:00,62.4,59.5,30.04,North,0,0.0,0.0,90,0.00,,,0.00,WUHU21623XXSP,2013-03-10 14:01:00,
2013-03-10 09:06:00,62.8,59.6,30.04,North,0,0.0,0.0,89,0.00,,,0.00,WUHU21623XXSP,2013-03-10 14:06:00,
2013-03-10 09:11:00,63.1,59.6,30.05,North,0,0.0,0.0,88,0.00,,,0.00,WUHU21623XXSP,2013-03-10 14:11:00,
2013-03-10 09:16:00,63.3,59.8,30.05,North,0,0.0,0.0,88,0.00,,,0.00,WUHU21623XXSP,2013-03-10 14:16:00,
2013-03-10 09:21:00,63.7,59.6,30.05,North,0,0.0,0.0,86,0.00,,,0.00,WUHU21623XXSP,2013-03-10 14:21:00,
2013-03-10 09:26:00,64.0,59.8,30.05,North,0,0.0,0.0,86,0.00,,,0.00,WUHU21623XXSP,2013-03-10 14:26:00,
2013-03-10 09:31:00,64.6,60.0,30.05,North,0,0.0,0.0,85,0.00,,,0.00,WUHU21623XXSP,2013-03-10 14:31:00,
2013-03-10 09:36:00,64.8,59.8,30.05,North,0,0.0,0.0,84,0.00,,,0.00,WUHU21623XXSP,2013-03-10 14:36:00,
2013-03-10 09:41:00,65.1,59.8,30.05,North,0,0.0,0.0,83,0.00,,,0.00,WUHU21623XXSP,2013-03-10 14:41:00,
2013-03-10 09:46:00,65.5,60.2,30.05,North,0,0.0,0.0,83,0.00,,,0.00,WUHU21623XXSP,2013-03-10 14:46:00,
2013-03-10 09:51:00,66.0,60.4,30.06,North,0,0.0,0.0,82,0.00,,,0.00,WUHU21623XXSP,2013-03-10 14:51:00,
2013-03-10 09:56:00,66.0,60.4,30.06,North,0,0.0,0.0,82,0.00,,,0.00,WUHU21623XXSP,2013-03-10 14:56:00,
2013-03-10 10:01:00,66.6,60.3,30.06,North,0,0.0,0.0,80,0.00,,,0.00,WUHU21623XXSP,2013-03-10 15:01:00,
2013-03-10 10:06:00,66.7,60.4,30.06,North,0,0.0,0.0,80,0.00,,,0.00,WUHU21623XXSP,2013-03-10 15:06:00,
2013-03-10 10:11:00,67.1,60.4,30.06,North,0,0.0,0.0,79,0.00,,,0.00,WUHU21623XXSP,2013-03-10 15:11:00,
2013-03-10 10:16:00,67.3,60.2,30.06,North,0,0.0,0.0,78,0.00,,,0.00,WUHU21623XXSP,2013-03-10 15:16:00,
2013-03-10 10:21:00,67.6,60.6,30.06,North,0,0.0,0.0,78,0.00,,,0.00,WUHU21623XXSP,2013-03-10 15:21:00,
2013-03-10 10:27:00,67.8,60.8,30.06,North,0,0.0,0.0,78,0.00,,,0.00,WUHU21623XXSP,2013-03-10 15:27:00,
2013-03-10 10:32:00,68.2,60.7,30.06,North,0,0.0,0.0,77,0.00,,,0.00,WUHU21623XXSP,2013-03-10 15:32:00,
2013-03-10 10:37:00,68.4,60.9,30.06,North,0,0.0,0.0,77,0.00,,,0.00,WUHU21623XXSP,2013-03-10 15:37:00,
2013-03-10 10:42:00,68.4,60.9,30.06,North,0,0.0,0.0,77,0.00,,,0.00,WUHU21623XXSP,2013-03-10 15:42:00,
2013-03-10 10:47:00,68.7,61.2,30.06,North,0,0.0,0.0,77,0.00,,,0.00,WUHU21623XXSP,2013-03-10 15:47:00,
2013-03-10 10:52:00,68.9,61.4,30.06,North,0,0.0,0.0,77,0.00,,,0.00,WUHU21623XXSP,2013-03-10 15:52:00,
2013-03-10 10:57:00,69.3,61.2,30.05,North,0,0.0,0.0,76,0.00,,,0.00,WUHU21623XXSP,2013-03-10 15:57:00,
2013-03-10 11:02:00,69.4,61.5,30.05,North,0,0.0,0.0,76,0.00,,,0.00,WUHU21623XXSP,2013-03-10 16:02:00,
2013-03-10 11:07:00,69.6,61.6,30.05,North,0,0.0,0.0,76,0.00,,,0.00,WUHU21623XXSP,2013-03-10 16:07:00,
2013-03-10 11:12:00,70.2,62.0,30.05,North,0,0.0,0.0,76,0.00,,,0.00,WUHU21623XXSP,2013-03-10 16:12:00,
2013-03-10 11:17:00,70.5,62.5,30.04,North,0,0.0,0.0,76,0.00,,,0.00,WUHU21623XXSP,2013-03-10 16:17:00,
2013-03-10 11:22:00,71.2,62.9,30.05,North,0,0.0,0.0,75,0.00,,,0.00,WUHU21623XXSP,2013-03-10 16:22:00,
2013-03-10 11:27:00,71.4,63.0,30.05,North,0,0.0,0.0,75,0.00,,,0.00,WUHU21623XXSP,2013-03-10 16:27:00,
2013-03-10 11:32:00,71.8,63.0,30.05,North,0,0.0,0.0,74,0.00,,,0.00,WUHU21623XXSP,2013-03-10 16:32:00,
2013-03-10 11:37:00,72.0,63.2,30.04,North,0,0.0,0.0,74,0.00,,,0.00,WUHU21623XXSP,2013-03-10 16:37:00,
2013-03-10 11:42:00,72.1,63.2,30.05,North,0,0.0,0.0,73,0.00,,,0.00,WUHU21623XXSP,2013-03-10 16:42:00,
2013-03-10 11:47:00,72.0,62.8,30.05,North,0,0.0,0.0,73,0.00,,,0.00,WUHU21623XXSP,2013-03-10 16:47:00,
2013-03-10 11:53:00,72.1,63.0,30.05,North,0,0.0,0.0,73,0.00,,,0.00,WUHU21623XXSP,2013-03-10 16:53:00,
2013-03-10 11:58:00,72.3,63.2,30.05,North,0,0.0,0.0,73,0.00,,,0.00,WUHU21623XXSP,2013-03-10 16:58:00,
2013-03-10 12:03:00,72.3,63.2,30.05,North,0,0.0,0.0,73,0.00,,,0.00,WUHU21623XXSP,2013-03-10 17:03:00,
2013-03-10 12:08:00,72.3,62.8,30.06,North,0,0.0,0.0,72,0.00,,,0.00,WUHU21623XXSP,2013-03-10 17:08:00,
2013-03-10 12:13:00,72.1,63.2,30.05,North,0,0.0,0.0,73,0.00,,,0.00,WUHU21623XXSP,2013-03-10 17:13:00,
2013-03-10 12:18:00,71.8,62.7,30.05,North,0,0.0,0.0,73,0.00,,,0.00,WUHU21623XXSP,2013-03-10 17:18:00,
2013-03-10 12:23:00,71.8,62.5,30.06,North,0,0.0,0.0,73,0.00,,,0.00,WUHU21623XXSP,2013-03-10 17:23:00,
2013-03-10 12:28:00,71.6,62.9,30.06,North,0,0.0,0.0,74,0.00,,,0.00,WUHU21623XXSP,2013-03-10 17:28:00,
2013-03-10 12:33:00,71.6,62.9,30.06,North,0,0.0,0.0,74,0.00,,,0.00,WUHU21623XXSP,2013-03-10 17:33:00,
2013-03-10 12:37:00,71.8,63.0,30.06,North,0,0.0,0.0,74,0.00,,,0.00,WUHU21623XXSP,2013-03-10 17:37:00,
2013-03-10 12:42:00,72.1,63.4,30.06,North,0,0.0,0.0,74,0.00,,,0.00,WUHU21623XXSP,2013-03-10 17:42:00,
2013-03-10 12:47:00,72.3,63.2,30.06,North,0,0.0,0.0,73,0.00,,,0.00,WUHU21623XXSP,2013-03-10 17:47:00,
2013-03-10 12:52:00,72.9,63.7,30.06,North,0,0.0,0.0,73,0.00,,,0.00,WUHU21623XXSP,2013-03-10 17:52:00,
2013-03-10 12:57:00,73.0,63.9,30.05,North,0,0.0,0.0,73,0.00,,,0.00,WUHU21623XXSP,2013-03-10 17:57:00,
2013-03-10 13:02:00,73.2,63.7,30.05,North,0,0.0,0.0,72,0.00,,,0.00,WUHU21623XXSP,2013-03-10 18:02:00,
2013-03-10 13:07:00,73.2,63.7,30.05,North,0,0.0,0.0,72,0.00,,,0.00,WUHU21623XXSP,2013-03-10 18:07:00,
2013-03-10 13:12:00,73.6,63.7,30.05,North,0,0.0,0.0,71,0.00,,,0.00,WUHU21623XXSP,2013-03-10 18:12:00,
2013-03-10 13:17:00,73.8,63.8,30.05,North,0,0.0,0.0,71,0.00,,,0.00,WUHU21623XXSP,2013-03-10 18:17:00,
2013-03-10 13:22:00,73.9,64.0,30.04,North,0,0.0,0.0,70,0.00,,,0.00,WUHU21623XXSP,2013-03-10 18:22:00,
2013-03-10 13:27:00,74.1,63.8,30.04,North,0,0.0,0.0,70,0.00,,,0.00,WUHU21623XXSP,2013-03-10 18:27:00,
2013-03-10 13:32:00,73.9,63.6,30.04,North,0,0.0,0.0,70,0.00,,,0.00,WUHU21623XXSP,2013-03-10 18:32:00,
2013-03-10 13:37:00,73.9,64.0,30.04,North,0,0.0,0.0,70,0.00,,,0.00,WUHU21623XXSP,2013-03-10 18:37:00,
2013-03-10 13:42:00,73.9,63.6,30.04,North,0,0.0,0.0,70,0.00,,,0.00,WUHU21623XXSP,2013-03-10 18:42:00,
2013-03-10 13:48:00,73.9,63.6,30.04,North,0,0.0,0.0,70,0.00,,,0.00,WUHU21623XXSP,2013-03-10 18:48:00,
2013-03-10 13:53:00,73.9,63.6,30.04,North,0,0.0,0.0,70,0.00,,,0.00,WUHU21623XXSP,2013-03-10 18:53:00,
2013-03-10 13:58:00,73.9,63.6,30.04,North,0,0.0,0.0,70,0.00,,,0.00,WUHU21623XXSP,2013-03-10 18:58:00,
2013-03-10 14:03:00,73.8,63.5,30.04,North,0,0.0,0.0,70,0.00,,,0.00,WUHU21623XXSP,2013-03-10 19:03:00,
2013-03-10 14:08:00,73.8,63.5,30.04,North,0,0.0,0.0,70,0.00,,,0.00,WUHU21623XXSP,2013-03-10 19:08:00,
2013-03-10 14:12:00,73.6,63.5,30.05,North,0,0.0,0.0,70,0.00,,,0.00,WUHU21623XXSP,2013-03-10 19:12:00,
2013-03-10 14:17:00,73.8,63.3,30.04,North,0,0.0,0.0,70,0.00,,,0.00,WUHU21623XXSP,2013-03-10 19:17:00,
2013-03-10 14:22:00,73.6,63.3,30.04,North,0,0.0,0.0,70,0.00,,,0.00,WUHU21623XXSP,2013-03-10 19:22:00,
2013-03-10 14:27:00,73.4,63.3,30.04,North,0,0.0,0.0,70,0.00,,,0.00,WUHU21623XXSP,2013-03-10 19:27:00,
2013-03-10 14:32:00,73.2,63.3,30.04,North,0,0.0,0.0,71,0.00,,,0.00,WUHU21623XXSP,2013-03-10 19:32:00,
2013-03-10 14:37:00,73.0,63.3,30.04,North,0,0.0,0.0,71,0.00,,,0.00,WUHU21623XXSP,2013-03-10 19:37:00,
2013-03-10 14:42:00,72.9,63.4,30.03,North,0,0.0,0.0,72,0.00,,,0.00,WUHU21623XXSP,2013-03-10 19:42:00,
2013-03-10 14:47:00,72.7,63.2,30.03,North,0,0.0,0.0,72,0.00,,,0.00,WUHU21623XXSP,2013-03-10 19:47:00,
2013-03-10 14:52:00,72.7,63.2,30.03,North,0,0.0,0.0,72,0.00,,,0.00,WUHU21623XXSP,2013-03-10 19:52:00,
2013-03-10 14:57:00,72.7,63.6,30.02,North,0,0.0,0.0,73,0.00,,,0.00,WUHU21623XXSP,2013-03-10 19:57:00,
2013-03-10 15:02:00,73.0,63.5,30.02,North,0,0.0,0.0,72,0.00,,,0.00,WUHU21623XXSP,2013-03-10 20:02:00,
2013-03-10 15:07:00,73.2,63.7,30.01,North,0,0.0,0.0,72,0.00,,,0.00,WUHU21623XXSP,2013-03-10 20:07:00,
2013-03-10 15:12:00,73.2,63.7,30.01,North,0,0.0,0.0,72,0.00,,,0.00,WUHU21623XXSP,2013-03-10 20:12:00,
2013-03-10 15:17:00,73.8,63.7,30.01,North,0,0.0,0.0,71,0.00,,,0.00,WUHU21623XXSP,2013-03-10 20:17:00,
2013-03-10 15:22:00,73.9,64.0,30.01,North,0,0.0,0.0,71,0.00,,,0.00,WUHU21623XXSP,2013-03-10 20:22:00,
2013-03-10 15:28:00,74.1,64.0,30.01,North,0,0.0,0.0,71,0.00,,,0.00,WUHU21623XXSP,2013-03-10 20:28:00,
2013-03-10 15:33:00,74.5,64.1,30.01,North,0,0.0,0.0,70,0.00,,,0.00,WUHU21623XXSP,2013-03-10 20:33:00,
2013-03-10 15:38:00,74.8,64.1,30.01,North,0,0.0,0.0,70,0.00,,,0.00,WUHU21623XXSP,2013-03-10 20:38:00,
2013-03-10 15:43:00,74.8,64.4,30.01,North,0,0.0,0.0,70,0.00,,,0.00,WUHU21623XXSP,2013-03-10 20:43:00,
2013-03-10 15:48:00,74.8,64.4,30.01,North,0,0.0,0.0,70,0.00,,,0.00,WUHU21623XXSP,2013-03-10 20:48:00,
2013-03-10 15:53:00,74.7,64.3,30.01,North,0,0.0,0.0,70,0.00,,,0.00,WUHU21623XXSP,2013-03-10 20:53:00,
2013-03-10 15:58:00,74.3,63.7,30.00,North,0,0.0,0.0,70,0.00,,,0.00,WUHU21623XXSP,2013-03-10 20:58:00,
2013-03-10 16:03:00,73.9,63.6,30.00,North,0,0.0,0.0,70,0.00,,,0.00,WUHU21623XXSP,2013-03-10 21:03:00,
2013-03-10 16:08:00,73.2,63.3,30.00,North,0,0.0,0.0,71,0.00,,,0.00,WUHU21623XXSP,2013-03-10 21:08:00,
2013-03-10 16:13:00,73.0,63.2,30.00,North,0,0.0,0.0,71,0.00,,,0.00,WUHU21623XXSP,2013-03-10 21:13:00,
2013-03-10 16:18:00,72.9,63.4,30.00,North,0,0.0,0.0,72,0.00,,,0.00,WUHU21623XXSP,2013-03-10 21:18:00,
2013-03-10 16:23:00,72.3,63.0,30.00,North,0,0.0,0.0,73,0.00,,,0.00,WUHU21623XXSP,2013-03-10 21:23:00,
2013-03-10 16:28:00,72.1,63.0,29.99,North,0,0.0,0.0,73,0.00,,,0.00,WUHU21623XXSP,2013-03-10 21:28:00,
2013-03-10 16:33:00,72.0,63.0,29.99,North,0,0.0,0.0,73,0.00,,,0.00,WUHU21623XXSP,2013-03-10 21:33:00,
2013-03-10 16:38:00,71.8,62.7,29.99,North,0,0.0,0.0,73,0.00,,,0.00,WUHU21623XXSP,2013-03-10 21:38:00,
2013-03-10 16:43:00,71.4,62.7,29.99,North,0,0.0,0.0,74,0.00,,,0.00,WUHU21623XXSP,2013-03-10 21:43:00,
2013-03-10 16:48:00,71.2,62.7,29.99,North,0,0.0,0.0,74,0.00,,,0.00,WUHU21623XXSP,2013-03-10 21:48:00,
2013-03-10 16:53:00,71.1,62.7,29.99,North,0,0.0,0.0,75,0.00,,,0.00,WUHU21623XXSP,2013-03-10 21:53:00,
2013-03-10 16:58:00,71.2,62.9,29.99,North,0,0.0,0.0,75,0.00,,,0.00,WUHU21623XXSP,2013-03-10 21:58:00,
2013-03-10 17:03:00,71.2,62.9,29.99,North,0,0.0,0.0,75,0.00,,,0.00,WUHU21623XXSP,2013-03-10 22:03:00,
2013-03-10 17:08:00,71.4,63.0,29.98,North,0,0.0,0.0,75,0.00,,,0.00,WUHU21623XXSP,2013-03-10 22:08:00,
2013-03-10 17:13:00,71.4,63.0,29.98,North,0,0.0,0.0,75,0.00,,,0.00,WUHU21623XXSP,2013-03-10 22:13:00,
2013-03-10 17:18:00,71.4,62.7,29.98,North,0,0.0,0.0,74,0.00,,,0.00,WUHU21623XXSP,2013-03-10 22:18:00,
2013-03-10 17:23:00,71.4,62.7,29.98,North,0,0.0,0.0,74,0.00,,,0.00,WUHU21623XXSP,2013-03-10 22:23:00,
2013-03-10 17:28:00,70.9,62.5,29.98,North,0,0.0,0.0,75,0.00,,,0.00,WUHU21623XXSP,2013-03-10 22:28:00,
2013-03-10 17:33:00,70.7,62.3,29.98,North,0,0.0,0.0,75,0.00,,,0.00,WUHU21623XXSP,2013-03-10 22:33:00,
2013-03-10 17:38:00,70.7,62.7,29.97,North,0,0.0,0.0,76,0.00,,,0.00,WUHU21623XXSP,2013-03-10 22:38:00,
2013-03-10 17:43:00,70.3,62.3,29.98,North,0,0.0,0.0,76,0.00,,,0.00,WUHU21623XXSP,2013-03-10 22:43:00,
2013-03-10 17:48:00,70.3,62.3,29.97,North,0,0.0,0.0,76,0.00,,,0.00,WUHU21623XXSP,2013-03-10 22:48:00,
2013-03-10 17:53:00,70.3,62.3,29.97,North,0,0.0,0.0,76,0.00,,,0.00,WUHU21623XXSP,2013-03-10 22:53:00,
2013-03-10 17:58:00,70.5,62.3,29.97,North,0,0.0,0.0,76,0.00,,,0.00,WUHU21623XXSP,2013-03-10 22:58:00,
2013-03-10 18:03:00,70.3,62.5,29.97,North,0,0.0,0.0,76,0.00,,,0.00,WUHU21623XXSP,2013-03-10 23:03:00,
2013-03-10 18:08:00,70.3,62.3,29.97,North,0,0.0,0.0,76,0.00,,,0.00,WUHU21623XXSP,2013-03-10 23:08:00,
2013-03-10 18:13:00,70.2,62.3,29.97,North,0,0.0,0.0,76,0.00,,,0.00,WUHU21623XXSP,2013-03-10 23:13:00,
2013-03-10 18:18:00,70.0,62.0,29.97,North,0,0.0,0.0,76,0.00,,,0.00,WUHU21623XXSP,2013-03-10 23:18:00,
2013-03-10 18:23:00,69.6,61.6,29.98,North,0,0.0,0.0,77,0.00,,,0.00,WUHU21623XXSP,2013-03-10 23:23:00,
2013-03-10 18:28:00,69.4,61.9,29.98,North,0,0.0,0.0,77,0.00,,,0.00,WUHU21623XXSP,2013-03-10 23:28:00,
2013-03-10 18:33:00,69.1,61.5,29.98,North,0,0.0,0.0,77,0.00,,,0.00,WUHU21623XXSP,2013-03-10 23:33:00,
2013-03-10 18:38:00,69.1,61.5,29.98,North,0,0.0,0.0,77,0.00,,,0.00,WUHU21623XXSP,2013-03-10 23:38:00,
2013-03-10 18:43:00,69.1,61.5,29.97,North,0,0.0,0.0,77,0.00,,,0.00,WUHU21623XXSP,2013-03-10 23:43:00,
2013-03-10 18:48:00,69.1,61.5,29.97,North,0,0.0,0.0,77,0.00,,,0.00,WUHU21623XXSP,2013-03-10 23:48:00,
2013-03-10 18:53:00,68.2,61.1,29.97,North,0,0.0,0.0,78,0.00,,,0.00,WUHU21623XXSP,2013-03-10 23:53:00,
2013-03-10 18:58:00,68.2,61.1,29.97,North,0,0.0,0.0,78,0.00,,,0.00,WUHU21623XXSP,2013-03-10 23:58:00,
2013-03-10 19:03:00,68.2,61.1,29.97,North,0,0.0,0.0,78,0.00,,,0.00,WUHU21623XXSP,2013-03-11 00:03:00,
2013-03-10 19:08:00,68.2,61.9,29.97,North,0,0.0,0.0,80,0.00,,,0.00,WUHU21623XXSP,2013-03-11 00:08:00,
2013-03-10 19:13:00,66.7,61.9,29.97,North,0,0.0,0.0,80,0.00,,,0.00,WUHU21623XXSP,2013-03-11 00:13:00,
2013-03-10 19:18:00,66.4,60.4,29.97,North,0,0.0,0.0,80,0.00,,,0.00,WUHU21623XXSP,2013-03-11 00:18:00,
2013-03-10 19:23:00,66.4,60.1,29.97,North,0,0.0,0.0,81,0.00,,,0.00,WUHU21623XXSP,2013-03-11 00:23:00,
2013-03-10 19:28:00,66.0,60.2,29.97,North,0,0.0,0.0,81,0.00,,,0.00,WUHU21623XXSP,2013-03-11 00:28:00,
2013-03-10 19:33:00,66.0,60.4,29.97,North,0,0.0,0.0,82,0.00,,,0.00,WUHU21623XXSP,2013-03-11 00:33:00,
2013-03-10 19:38:00,66.0,60.4,29.97,North,0,0.0,0.0,82,0.00,,,0.00,WUHU21623XXSP,2013-03-11 00:38:00,
2013-03-10 19:43:00,66.0,60.4,29.97,North,0,0.0,0.0,82,0.00,,,0.00,WUHU21623XXSP,2013-03-11 00:43:00,
2013-03-10 19:48:00,66.0,60.7,29.97,North,0,0.0,0.0,83,0.00,,,0.00,WUHU21623XXSP,2013-03-11 00:48:00,
2013-03-10 19:53:00,65.5,60.5,29.97,North,0,0.0,0.0,84,0.00,,,0.00,WUHU21623XXSP,2013-03-11 00:53:00,
2013-03-10 19:58:00,65.3,60.3,29.96,North,0,0.0,0.0,84,0.00,,,0.00,WUHU21623XXSP,2013-03-11 00:58:00,
2013-03-10 20:03:00,65.3,60.3,29.97,North,0,0.0,0.0,85,0.00,,,0.00,WUHU21623XXSP,2013-03-11 01:03:00,
2013-03-10 20:08:00,65.1,60.5,29.97,North,0,0.0,0.0,85,0.00,,,0.00,WUHU21623XXSP,2013-03-11 01:08:00,
2013-03-10 20:13:00,64.9,60.3,29.97,North,0,0.0,0.0,85,0.00,,,0.00,WUHU21623XXSP,2013-03-11 01:13:00,
2013-03-10 20:18:00,64.8,60.2,29.97,North,0,0.0,0.0,85,0.00,,,0.00,WUHU21623XXSP,2013-03-11 01:18:00,
2013-03-10 20:23:00,64.6,60.0,29.97,North,0,0.0,0.0,85,0.00,,,0.00,WUHU21623XXSP,2013-03-11 01:23:00,
2013-03-10 20:28:00,64.6,60.0,29.97,North,0,0.0,0.0,86,0.00,,,0.00,WUHU21623XXSP,2013-03-11 01:28:00,
2013-03-10 20:33:00,64.6,60.3,29.98,North,0,0.0,0.0,86,0.00,,,0.00,WUHU21623XXSP,2013-03-11 01:33:00,
2013-03-10 20:38:00,64.4,60.2,29.98,North,0,0.0,0.0,86,0.00,,,0.00,WUHU21623XXSP,2013-03-11 01:38:00,
2013-03-10 20:43:00,64.2,60.0,29.98,North,0,0.0,0.0,86,0.00,,,0.00,WUHU21623XXSP,2013-03-11 01:43:00,
2013-03-10 20:48:00,64.2,60.0,29.98,North,0,0.0,0.0,86,0.00,,,0.00,WUHU21623XXSP,2013-03-11 01:48:00,
2013-03-10 20:53:00,64.2,60.0,29.98,North,0,0.0,0.0,86,0.00,,,0.00,WUHU21623XXSP,2013-03-11 01:53:00,
2013-03-10 20:58:00,64.2,60.0,29.98,North,0,0.0,0.0,86,0.00,,,0.00,WUHU21623XXSP,2013-03-11 01:58:00,
2013-03-10 21:03:00,64.2,60.3,29.98,North,0,0.0,0.0,87,0.00,,,0.00,WUHU21623XXSP,2013-03-11 02:03:00,
2013-03-10 21:08:00,64.2,60.3,29.98,North,0,0.0,0.0,87,0.00,,,0.00,WUHU21623XXSP,2013-03-11 02:08:00,
2013-03-10 21:13:00,64.2,60.3,29.98,North,0,0.0,0.0,87,0.00,,,0.00,WUHU21623XXSP,2013-03-11 02:13:00,
2013-03-10 21:18:00,64.2,60.3,29.98,North,0,0.0,0.0,87,0.00,,,0.00,WUHU21623XXSP,2013-03-11 02:18:00,
2013-03-10 21:23:00,64.2,60.3,29.98,North,0,0.0,0.0,87,0.00,,,0.00,WUHU21623XXSP,2013-03-11 02:23:00,
2013-03-10 21:28:00,64.0,60.1,29.98,North,0,0.0,0.0,87,0.00,,,0.00,WUHU21623XXSP,2013-03-11 02:28:00,
2013-03-10 21:33:00,64.0,60.1,29.98,North,0,0.0,0.0,87,0.00,,,0.00,WUHU21623XXSP,2013-03-11 02:33:00,
2013-03-10 21:38:00,64.0,60.1,29.98,North,0,0.0,0.0,87,0.00,,,0.00,WUHU21623XXSP,2013-03-11 02:38:00,
2013-03-10 21:43:00,63.9,60.3,29.98,North,0,0.0,0.0,88,0.00,,,0.00,WUHU21623XXSP,2013-03-11 02:43:00,
2013-03-10 21:48:00,63.9,60.3,29.98,North,0,0.0,0.0,88,0.00,,,0.00,WUHU21623XXSP,2013-03-11 02:48:00,
2013-03-10 21:53:00,63.7,60.1,29.98,North,0,0.0,0.0,88,0.00,,,0.00,WUHU21623XXSP,2013-03-11 02:53:00,
2013-03-10 21:58:00,63.7,60.1,29.98,North,0,0.0,0.0,88,0.00,,,0.00,WUHU21623XXSP,2013-03-11 02:58:00,
2013-03-10 22:03:00,63.7,60.1,29.98,North,0,0.0,0.0,88,0.00,,,0.00,WUHU21623XXSP,2013-03-11 03:03:00,
2013-03-10 22:08:00,63.7,60.1,29.99,North,0,0.0,0.0,88,0.00,,,0.00,WUHU21623XXSP,2013-03-11 03:08:00,
2013-03-10 22:13:00,63.7,60.1,29.98,North,0,0.0,0.0,88,0.00,,,0.00,WUHU21623XXSP,2013-03-11 03:13:00,
2013-03-10 22:18:00,63.7,60.1,29.98,North,0,0.0,0.0,88,0.00,,,0.00,WUHU21623XXSP,2013-03-11 03:18:00,
2013-03-10 22:23:00,63.7,60.1,29.98,North,0,0.0,0.0,88,0.00,,,0.00,WUHU21623XXSP,2013-03-11 03:23:00,
2013-03-10 22:28:00,63.7,60.1,29.97,North,0,0.0,0.0,88,0.00,,,0.00,WUHU21623XXSP,2013-03-11 03:28:00,
2013-03-10 22:33:00,63.7,60.1,29.98,North,0,0.0,0.0,88,0.00,,,0.00,WUHU21623XXSP,2013-03-11 03:33:00,
2013-03-10 22:38:00,63.7,60.1,29.98,North,0,0.0,0.0,89,0.00,,,0.00,WUHU21623XXSP,2013-03-11 03:38:00,
2013-03-10 22:43:00,63.5,60.3,29.97,North,0,0.0,0.0,89,0.00,,,0.00,WUHU21623XXSP,2013-03-11 03:43:00,
2013-03-10 22:48:00,63.5,60.3,29.97,North,0,0.0,0.0,89,0.00,,,0.00,WUHU21623XXSP,2013-03-11 03:48:00,
2013-03-10 22:53:00,63.5,60.3,29.97,North,0,0.0,0.0,89,0.00,,,0.00,WUHU21623XXSP,2013-03-11 03:53:00,
2013-03-10 22:58:00,63.5,60.3,29.96,North,0,0.0,0.0,89,0.00,,,0.00,WUHU21623XXSP,2013-03-11 03:58:00,
2013-03-10 23:00:00,63.5,60.3,29.96,North,0,0.0,0.0,89,0.00,,,0.00,WUHU21623XXSP,2013-03-11 04:00:00,
2013-03-10 23:05:00,63.5,60.3,29.96,North,0,0.0,0.0,89,0.00,,,0.00,WUHU21623XXSP,2013-03-11 04:05:00,
2013-03-10 23:10:00,63.5,60.3,29.96,North,0,0.0,0.0,89,0.00,,,0.00,WUHU21623XXSP,2013-03-11 04:10:00,
2013-03-10 23:15:00,63.5,60.3,29.96,North,0,0.0,0.0,89,0.00,,,0.00,WUHU21623XXSP,2013-03-11 04:15:00,
2013-03-10 23:20:00,63.7,60.5,29.95,North,0,0.0,0.0,89,0.00,,,0.00,WUHU21623XXSP,2013-03-11 04:20:00,
2013-03-10 23:25:00,63.5,60.5,29.95,North,0,0.0,0.0,89,0.00,,,0.00,WUHU21623XXSP,2013-03-11 04:25:00,
2013-03-10 23:30:00,63.7,59.9,29.95,North,0,0.0,0.0,88,0.00,,,0.00,WUHU21623XXSP,2013-03-11 04:30:00,
2013-03-10 23:35:00,63.5,59.9,29.94,North,0,0.0,0.0,88,0.00,,,0.00,WUHU21623XXSP,2013-03-11 04:35:00,
2013-03-10 23:40:00,63.5,59.9,29.94,North,0,0.0,0.0,88,0.00,,,0.00,WUHU21623XXSP,2013-03-11 04:40:00,
2013-03-10 23:45:00,63.5,59.9,29.94,North,0,0.0,0.0,88,0.00,,,0.00,WUHU21623XXSP,2013-03-11 04:45:00,
2013-03-10 23:50:00,63.5,59.9,29.94,North,0,0.0,0.0,88,0.00,,,0.00,WUHU21623XXSP,2013-03-11 04:50:00,
2013-03-10 23:55:00,63.5,59.9,29.94,North,0,0.0,0.0,88,0.00,,,0.00,WUHU21623XXSP,2013-03-11 04:55:00,